Terug naar catalogus

PSLV R/B

ActiefSSO
NORAD 43620·ROCKET BODY·🇮🇳 India

Gelanceerd Sep 16, 2018 vanaf Satish Dhawan Space Centre

Loading…

Volgende Passages (komende 24 uur)

TLE

VersSource: Space-Track

Epoch: Sep 14, 2026, 11:22 UTC

1 43620U 18071C   26257.47424690  .00001336  00000-0  10973-3 0  9996
2 43620  97.4477  70.2440 0017271 181.3743 178.7437 15.00698908435811

Volg PSLV R/B in realtime met AllMySat

Download on the App Store